MOS 1 Rocket - Orbit

View from above orbital plane
View from above orbital plane
View from above satellite
View from above satellite

Ground track
Ground track

The orbit data is extracted from the following two-line orbital elements,

1 17528U 87018B   13140.83881295  .00000347  00000-0  88199-4 0   815
2 17528 097.4823 248.9829 0153691 279.0904 240.9651 14.49467862384155
Epoch (UTC): 20 May 2013 20:07:53
Eccentricity: 0.0153691
inclination: 97.4823°
perigee height: 618 km
apogee height: 836 km
right ascension of ascending node: 248.9829°
argument of perigee: 279.0904°
revolutions per day: 14.49467862
mean anomaly at epoch: 240.9651°
orbit number at epoch: 38415

The dashed part of the orbit path shows where the satellite is in the earth's shadow,  

Developed and maintained by Chris Peat, Heavens-Above GmbH. Please read the updated FAQ before sending e-mail. Imprint. DLR